This is the latest recevied weather packets stored in our database for station/object W0AKO. If no packets are shown the sender has not sent any weather packets the latest 10 day(s).
| Time | Temp. | Humidity | Pressure | Rain* | Wind** | Luminosity | Snow |
|---|---|---|---|---|---|---|---|
| 1777714732 | 14.44° C | 10% | 1019.6 hPa | 0 mm | - | 0 W/m² | - |
| 1777714430 | 13.89° C | 10% | 1019.6 hPa | 0 mm | - | 0 W/m² | - |
| 1777714128 | 14.44° C | 10% | 1019.5 hPa | 0 mm | - | 0 W/m² | - |
| 1777713825 | 14.44° C | 10% | 1019.5 hPa | 0 mm | - | 0 W/m² | - |
| 1777713523 | 15° C | 10% | 1019.4 hPa | 0 mm | - | 0 W/m² | - |
| 1777713218 | 15.56° C | 10% | 1019.4 hPa | 0 mm | - | 0 W/m² | - |
| 1777712916 | 15.56° C | 10% | 1019.4 hPa | 0 mm | - | 0 W/m² | - |
| 1777712612 | 15.56° C | 10% | 1019.4 hPa | 0 mm | - | 0 W/m² | - |
| 1777712309 | 15.56° C | 10% | 1019.4 hPa | 0 mm | - | 0 W/m² | - |
| 1777712006 | 15.56° C | 10% | 1019.4 hPa | 0 mm | - | 0 W/m² | - |
| 1777711703 | 16.11° C | 10% | 1019.4 hPa | 0 mm | - | 0 W/m² | - |
| 1777711399 | 16.11° C | 10% | 1019.4 hPa | 0 mm | - | 0 W/m² | - |
| 1777711095 | 16.11° C | 10% | 1019.3 hPa | 0 mm | - | 0 W/m² | - |
| 1777710791 | 16.11° C | 10% | 1019.5 hPa | 0 mm | - | 0 W/m² | - |
| 1777710489 | 16.11° C | 10% | 1019.4 hPa | 0 mm | - | 0 W/m² | - |
| 1777710186 | 16.67° C | 10% | 1019.3 hPa | 0 mm | - | 0 W/m² | - |
| 1777709883 | 15.56° C | 10% | 1019.2 hPa | 0 mm | - | 0 W/m² | - |
| 1777709581 | 15.56° C | 10% | 1019.4 hPa | 0 mm | - | 0 W/m² | - |
| 1777709278 | 15.56° C | 10% | 1019.4 hPa | 0 mm | - | 0 W/m² | - |
| 1777708975 | 16.67° C | 10% | 1019.4 hPa | 0 mm | - | 0 W/m² | - |
| 1777708672 | 17.78° C | 10% | 1019.3 hPa | 0 mm | - | 0 W/m² | - |
| 1777708370 | 17.78° C | 10% | 1019.1 hPa | 0 mm | - | 0 W/m² | - |
| 1777708068 | 17.22° C | 10% | 1019.4 hPa | 0 mm | - | 0 W/m² | - |
| 1777707765 | 16.67° C | 10% | 1019.4 hPa | 0 mm | - | 0 W/m² | - |
| 1777707461 | 16.67° C | 10% | 1019.4 hPa | 0 mm | - | 0 W/m² | - |
* Rain latest hour (hover to see other rain measurements)
** Current wind speed in m/s (hover to see current wind gust speed)